[[{"header":{"parameterUnit":"m.s-1","parameterCategory":1,"la1":30.2991,"la2":30.254,"lo1":-89.0895,"lo2":-89.0444,"dy":0.0017,"dx":0.0017,"nx":28,"ny":28,"refTime":"2024-11-22T03:00:00:Z","depth":0,"parameterNumber":2,"parameterNumberName":"U-component_of_WINDS"},"data":[0,0,0,0,0,0,0,0,0,0,0,0,0,0,0,0,0,0,0,0,0,0,0,0,0,0,0,0,0,0,0,0,0,0,0,0,0,0,0,0,0,0,0,0,0,0,0,0,0,0,0,0,0,0,0,0,0,0,-0.9424,-0.9423,0,-0.9382,-0.9382,-0.9381,-0.9306,-0.9305,-0.9303,-0.9302,-0.9261,-0.9262,-0.9262,0,0,0,0,0,0,0,0,0,0,0,0,0,-0.944,-0.944,-0.9424,-0.9423,-0.9423,-0.9382,-0.9382,-0.9381,-0.9307,-0.9305,-0.9303,-0.9301,-0.9261,-0.9261,-0.9262,0,0,0,0,0,0,0,0,0,0,0,0,0,-0.942,-0.944,-0.9424,-0.9381,-0.9376,-0.9383,-0.9382,-0.9381,-0.9307,-0.9305,-0.9303,-0.9301,-0.9261,-0.9261,-0.9262,-0.9308,0,0,-0.9263,-0.9263,0,0,0,0,0,0,0,0,-0.9421,-0.9419,-0.9388,-0.9384,-0.9379,-0.9347,-0.9373,-0.9357,-0.9307,-0.9333,-0.9302,-0.9299,-0.9292,-0.9289,-0.9286,-0.9306,-0.9304,-0.9263,-0.9263,-0.9263,-0.9264,0,0,0,0,0,0,0,-0.9422,-0.942,-0.9407,-0.9387,-0.9382,-0.9364,-0.9359,-0.9369,-0.9325,-0.9331,-0.9325,-0.9321,-0.9289,-0.9286,-0.9285,-0.9303,-0.9263,-0.9263,-0.9264,-0.9264,-0.9358,-0.9361,0,0,0,0,0,0,-0.943,-0.9422,-0.9409,-0.9406,-0.9395,-0.9365,-0.9359,-0.936,-0.9325,-0.9317,-0.9323,-0.9318,-0.9287,-0.9285,-0.9283,-0.9335,-0.9263,-0.9264,-0.9264,-0.9356,-0.9359,-0.9361,0,0,0,0,0,0,-0.9431,-0.9429,-0.941,-0.9413,-0.9409,-0.9367,-0.9368,-0.936,-0.9357,-0.9319,-0.9311,-0.9329,-0.9285,-0.9283,-0.9302,-0.9332,-0.9264,-0.9264,-0.9353,-0.9357,-0.936,-0.9438,0,0,0,0,0,0,-0.9431,-0.943,-0.9447,-0.9414,-0.9409,-0.943,-0.937,-0.9361,-0.9358,-0.9351,-0.9322,-0.9315,-0.9283,-0.9302,-0.9302,-0.9331,-0.9265,-0.9351,-0.9355,-0.9359,-0.9432,-0.9444,-0.9453,0,0,0,0,0,-0.9432,-0.947,-0.9448,-0.9447,-0.9429,-0.9431,-0.9429,-0.9391,-0.9361,-0.9377,-0.9353,-0.9316,-0.9329,-0.9305,-0.9304,-0.9334,-0.9348,-0.9354,-0.9359,-0.9428,-0.9441,-0.9453,0,0,0,0,0,0,-0.9508,-0.9465,-0.944,-0.9468,-0.9454,-0.9419,-0.9438,-0.9406,-0.9401,-0.9394,-0.9348,-0.9342,-0.9368,-0.9353,-0.9326,-0.9377,-0.9333,-0.9338,-0.9386,-0.9398,-0.9408,-0.9411,-0.9265,0,0,0,0,0,-0.9529,-0.9534,-0.9496,-0.9525,-0.9519,-0.948,-0.948,-0.9452,-0.9436,-0.9429,-0.9406,-0.9393,-0.9393,-0.9395,-0.9393,-0.943,-0.9423,-0.945,-0.9461,-0.9469,-0.9475,-0.9493,-0.9505,-0.9378,-0.9378,-0.9378,0,0,-0.957,-0.9547,-0.9553,-0.954,-0.9525,-0.9533,-0.9476,-0.9486,-0.9491,-0.9431,-0.9448,-0.9431,-0.9412,-0.944,-0.9452,-0.9429,-0.9508,-0.9476,-0.9483,-0.9484,-0.95,-0.9512,-0.9523,-0.9382,-0.9381,-0.938,0,0,-0.965,-0.9633,-0.9655,-0.9642,-0.9621,-0.9595,-0.96,-0.957,-0.9556,-0.9572,-0.9528,-0.9533,-0.9536,-0.9524,-0.9519,-0.9595,-0.9561,-0.9596,-0.965,-0.9669,-0.9679,-0.9687,-0.9715,-0.9725,-0.9601,-0.9602,-0.9602,0,-0.9704,-0.9712,-0.9671,-0.9683,-0.9679,-0.9625,-0.9648,-0.9637,-0.9617,-0.9616,-0.959,-0.9592,-0.9576,-0.9601,-0.962,-0.9617,-0.9622,-0.9599,-0.968,-0.9689,-0.9696,-0.9722,-0.9732,-0.9606,-0.9606,-0.9605,-0.9605,0,-0.9781,-0.9787,-0.9808,-0.9789,-0.9787,-0.9805,-0.9767,-0.977,-0.9742,-0.9719,-0.9737,-0.9715,-0.9709,-0.9713,-0.9686,-0.9734,-0.9721,-0.9689,-0.9644,-0.9713,-0.9737,-0.9746,-0.9612,-0.9611,-0.9609,-0.9608,0,0,-0.9906,-0.9865,-0.9873,-0.9864,-0.9837,-0.9842,-0.9858,-0.9851,-0.9855,-0.9843,-0.9856,-0.9859,-0.9829,-0.9823,-0.9795,-0.9812,-0.9874,-0.9777,-0.9776,-0.9796,-0.9926,-0.995,-0.9962,-0.9851,-0.9853,-0.9854,-0.9928,0,-0.998,-1.0004,-0.9967,-0.9999,-1.0005,-0.9954,-0.9968,-0.9954,-0.9933,-0.9936,-0.9913,-0.9916,-0.9876,-0.9872,-0.9887,-0.9863,-0.9899,-0.9857,-0.9863,-0.9863,-0.9869,-0.9974,-1.0,-1.007,-0.9936,-0.9938,-0.9939,0,-1.0069,-1.0061,-1.0094,-1.0066,-1.0067,-1.008,-1.0071,-1.0074,-1.0057,-1.004,-1.0034,-1.0001,-1.0015,-0.9971,-0.9991,-0.9963,-0.9963,-0.9952,-0.9954,-0.9953,-0.9905,-0.9976,-1.0092,-1.0102,-0.9953,-0.9952,-0.9951,0,-1.0157,-1.0155,-1.0175,-1.0169,-1.0136,-1.0146,-1.0133,-1.0114,-1.0113,-1.0105,-1.0104,-1.0099,-1.0096,-1.0093,-1.0059,-1.0031,-1.0083,-1.0037,-1.007,-1.0071,-1.0083,-1.0083,-1.02,-1.0084,-1.0084,-1.0083,-1.0083,0,-1.0243,-1.0265,-1.0214,-1.0226,-1.025,-1.0208,-1.0233,-1.0215,-1.0198,-1.0206,-1.0162,-1.0171,-1.0126,-1.013,-1.0104,-1.0124,-1.0123,-1.0111,-1.0103,-1.0115,-1.0116,-1.0114,-1.0108,-1.0086,-1.0085,-1.0085,-1.0084,0,-1.0346,-1.0312,-1.033,-1.0298,-1.029,-1.0309,-1.0282,-1.0292,-1.0269,-1.028,-1.028,-1.0243,-1.0246,-1.0212,-1.0208,-1.0191,-1.0223,-1.0207,-1.0229,-1.0224,-1.0259,-1.0256,-1.0379,-1.0393,-1.0268,-1.0269,-1.027,0,-1.0403,-1.0419,-1.0388,-1.039,-1.0379,-1.0383,-1.0381,-1.0341,-1.0341,-1.0323,-1.0336,-1.0335,-1.0332,-1.0339,-1.0312,-1.0309,-1.0293,-1.0336,-1.0292,-1.0303,-1.0294,-1.0293,-1.0295,-1.0346,-1.0347,-1.0348,-1.035,0,-1.0507,-1.049,-1.0489,-1.0482,-1.0481,-1.0474,-1.0464,-1.0469,-1.0425,-1.0428,-1.0429,-1.0427,-1.0423,-1.0423,-1.0415,-1.0402,-1.0369,-1.0364,-1.0371,-1.0383,-1.0395,-1.0389,-1.0254,-1.0361,-1.036,-1.0359,-1.0358,-1.0358,-1.0589,-1.0601,-1.0581,-1.0581,-1.057,-1.0562,-1.057,-1.0547,-1.0548,-1.0541,-1.0518,-1.0524,-1.0507,-1.0493,-1.0484,-1.0488,-1.0467,-1.0478,-1.0481,-1.0485,-1.0491,-1.0394,-1.0487,-1.0487,-1.0486,-1.0486,-1.0486,0,-1.0691,-1.0676,-1.0677,-1.0664,-1.0665,-1.0633,-1.0621,-1.0624,-1.0629,-1.0616,-1.0614,-1.0617,-1.0617,-1.0591,-1.0588,-1.0596,-1.0581,-1.0597,-1.0596,-1.0594,-1.051,-1.0504,-1.0609,-1.0609,-1.0609,-1.0609,-1.0609,-1.0609,-1.0744,-1.0763,-1.0744,-1.0756,-1.0741,-1.0746,-1.0742,-1.0735,-1.0724,-1.0729,-1.0728,-1.0711,-1.0693,-1.0688,-1.0687,-1.0679,-1.068,-1.0702,-1.0689,-1.0611,-1.0599,-1.0588,-1.0582,-1.0702,-1.0702,-1.0772,-1.0772,-1.0773]},{"header":{"parameterUnit":"m.s-1","parameterCategory":1,"la1":30.2991,"la2":30.254,"lo1":-89.0895,"lo2":-89.0444,"dy":0.0017,"dx":0.0017,"nx":28,"ny":28,"refTime":"2024-11-22T03:00:00:Z","depth":0,"parameterNumber":3,"parameterNumberName":"V-component_of_WINDS"},"data":[0,0,0,0,0,0,0,0,0,0,0,0,0,0,0,0,0,0,0,0,0,0,0,0,0,0,0,0,0,0,0,0,0,0,0,0,0,0,0,0,0,0,0,0,0,0,0,0,0,0,0,0,0,0,0,0,0,0,0.0715,0.0714,0,0.0668,0.0668,0.0667,0.0663,0.0664,0.0665,0.0665,0.0616,0.0614,0.0613,0,0,0,0,0,0,0,0,0,0,0,0,0,0.0801,0.08,0.0715,0.0714,0.0714,0.0668,0.0668,0.0667,0.0663,0.0664,0.0665,0.0665,0.0617,0.0615,0.0613,0,0,0,0,0,0,0,0,0,0,0,0,0,0.076,0.0799,0.0715,0.0707,0.0705,0.0668,0.0668,0.0667,0.0663,0.0664,0.0665,0.0666,0.0617,0.0615,0.0612,0.058,0,0,0.0604,0.0603,0,0,0,0,0,0,0,0,0.0762,0.0757,0.0708,0.0707,0.0706,0.0672,0.068,0.0638,0.0663,0.0679,0.0665,0.0666,0.0634,0.063,0.062,0.0578,0.0576,0.0604,0.0602,0.0601,0.06,0,0,0,0,0,0,0,0.0765,0.0759,0.0696,0.0708,0.0706,0.0705,0.07,0.0672,0.0653,0.0678,0.0677,0.0672,0.0634,0.0622,0.0619,0.0575,0.0604,0.0602,0.06,0.0599,0.0506,0.0505,0,0,0,0,0,0,0.077,0.0761,0.0698,0.0695,0.0736,0.0703,0.0697,0.0682,0.0653,0.065,0.0671,0.0672,0.0627,0.0622,0.0617,0.0578,0.0601,0.0599,0.0597,0.0507,0.0506,0.0505,0,0,0,0,0,0,0.0772,0.0764,0.07,0.0728,0.072,0.0701,0.0684,0.0681,0.067,0.0648,0.0645,0.0663,0.0627,0.0621,0.059,0.0576,0.0597,0.0595,0.0508,0.0506,0.0505,0.0499,0,0,0,0,0,0,0.0774,0.0765,0.0752,0.0728,0.0718,0.0673,0.0683,0.068,0.0665,0.0666,0.064,0.0636,0.0627,0.0594,0.0587,0.0573,0.0593,0.0509,0.0507,0.0506,0.05,0.0498,0.0496,0,0,0,0,0,0.0777,0.0752,0.0752,0.0744,0.0702,0.0673,0.0667,0.0657,0.0664,0.0651,0.0638,0.0637,0.0579,0.0591,0.0583,0.0568,0.051,0.0508,0.0506,0.0502,0.0498,0.0496,0,0,0,0,0,0,0.0775,0.0749,0.0748,0.0714,0.0696,0.0672,0.0656,0.0654,0.0633,0.0634,0.0622,0.0616,0.0586,0.0574,0.0587,0.0536,0.0545,0.0541,0.0544,0.0541,0.0539,0.0542,0.0591,0,0,0,0,0,0.0771,0.0749,0.0727,0.07,0.069,0.0675,0.0661,0.0655,0.0636,0.0628,0.0612,0.0592,0.057,0.0555,0.0533,0.0499,0.0494,0.0485,0.0483,0.0481,0.0477,0.0459,0.0455,0.0498,0.0498,0.0498,0,0,0.0761,0.0744,0.0731,0.0699,0.0684,0.0661,0.0668,0.0644,0.0627,0.0624,0.0594,0.0582,0.0559,0.0527,0.0512,0.0516,0.0465,0.0478,0.0477,0.0475,0.0457,0.0452,0.0449,0.0497,0.0497,0.0497,0,0,0.0733,0.0718,0.0693,0.0678,0.0656,0.0646,0.064,0.0617,0.0609,0.0579,0.0576,0.0556,0.0517,0.0501,0.0488,0.0455,0.0454,0.0449,0.0435,0.0417,0.0414,0.0411,0.0399,0.0395,0.0446,0.0446,0.0446,0,0.0724,0.069,0.0681,0.0657,0.0643,0.064,0.0615,0.0601,0.0572,0.0562,0.0568,0.052,0.0504,0.0468,0.046,0.045,0.0443,0.0451,0.0415,0.0412,0.0409,0.0398,0.0393,0.0445,0.0445,0.0445,0.0445,0,0.068,0.0657,0.064,0.0613,0.0597,0.0572,0.056,0.0545,0.0541,0.0531,0.05,0.0482,0.0456,0.0448,0.0443,0.0411,0.0415,0.0418,0.0427,0.0405,0.0393,0.0389,0.0444,0.0445,0.0445,0.0445,0,0,0.0647,0.0616,0.061,0.0598,0.0574,0.0555,0.0532,0.0507,0.0494,0.0475,0.0455,0.0423,0.0426,0.0411,0.0405,0.0389,0.0364,0.0394,0.0394,0.0389,0.0328,0.0325,0.032,0.0364,0.0363,0.0362,0.033,0,0.0615,0.0573,0.0564,0.0527,0.0505,0.0503,0.0482,0.0465,0.0455,0.0435,0.0424,0.0402,0.0408,0.0399,0.0383,0.0371,0.0352,0.0373,0.0344,0.0343,0.0349,0.0315,0.0311,0.0282,0.0326,0.0325,0.0324,0,0.0572,0.0552,0.0513,0.0492,0.0483,0.0464,0.0441,0.0423,0.0404,0.0398,0.0382,0.0378,0.0353,0.0364,0.033,0.0344,0.0332,0.0325,0.0323,0.0319,0.0332,0.0309,0.0272,0.0267,0.0317,0.0318,0.0319,0,0.0552,0.0515,0.0487,0.0477,0.0452,0.0439,0.0428,0.041,0.0396,0.0376,0.0367,0.0345,0.0332,0.0315,0.0305,0.0314,0.0272,0.0282,0.0266,0.0266,0.0256,0.0256,0.0215,0.0249,0.0249,0.0249,0.025,0,0.0517,0.0492,0.0478,0.046,0.0433,0.0425,0.0398,0.0388,0.0372,0.0352,0.0349,0.0331,0.0319,0.03,0.0292,0.0265,0.0259,0.0253,0.0251,0.0253,0.0254,0.0244,0.0246,0.0248,0.0249,0.0249,0.0249,0,0.0488,0.0478,0.0447,0.0426,0.0421,0.0402,0.0384,0.0367,0.0358,0.0333,0.0327,0.0312,0.0289,0.0278,0.0249,0.0244,0.0213,0.0212,0.0219,0.0218,0.0202,0.0204,0.0153,0.0146,0.0185,0.0185,0.0185,0,0.0466,0.0448,0.0426,0.0412,0.0401,0.038,0.0366,0.0357,0.0343,0.032,0.0306,0.0283,0.0264,0.0227,0.0213,0.0191,0.019,0.0174,0.0187,0.0189,0.0189,0.019,0.0189,0.0171,0.0171,0.0171,0.017,0,0.0428,0.0424,0.0404,0.0382,0.0366,0.0349,0.0331,0.0321,0.0309,0.0293,0.027,0.0255,0.0226,0.0203,0.018,0.0169,0.0168,0.0167,0.0162,0.0163,0.0167,0.0164,0.0212,0.0168,0.0168,0.0168,0.0168,0.0168,0.0402,0.0385,0.0367,0.0346,0.0332,0.0316,0.03,0.0289,0.0269,0.0245,0.0241,0.0216,0.0198,0.0167,0.0156,0.0136,0.014,0.0132,0.013,0.0129,0.0128,0.0171,0.0132,0.0132,0.0132,0.0132,0.0132,0,0.0363,0.0352,0.0332,0.0308,0.0291,0.0292,0.0274,0.0259,0.0237,0.0221,0.0203,0.0176,0.0154,0.0139,0.0117,0.0104,0.0103,0.0098,0.0099,0.0096,0.0126,0.0132,0.01,0.01,0.01,0.01,0.01,0.01,0.0341,0.0313,0.0307,0.0273,0.0262,0.0237,0.0227,0.0212,0.0199,0.017,0.0152,0.0143,0.0127,0.0104,0.0084,0.008,0.0072,0.0067,0.0063,0.0091,0.0094,0.0097,0.0103,0.0066,0.0065,0.0036,0.0035,0.0035]}]]